Regional Weather Roundup
Issued by NWS

Home | Current Version | Previous Version | Text Only | Print | Product List | Glossary On
Versions: 1 2 3 4 5 6 7 8 9 10 11 12 13 14 15 16 17 18 19 20 21 22 23 24 25 26 27 28 29 30 31 32 33 34 35 36 37 38 39 40 41 42 43 44 45 46 47 48 49 50
000
ASUS43 KFSD 250110
RWRSD

WEATHER ROUNDUP FOR SOUTH DAKOTA
NATIONAL WEATHER SERVICE SIOUX FALLS SD
800 PM CDT WED AUG 24 2016

NOTE: "FAIR" INDICATES FEW OR NO CLOUDS BELOW 12,000 FEET WITH NO
SIGNIFICANT WEATHER AND/OR OBSTRUCTIONS TO VISIBILITY.


SDZ001>005-009-010-012>017-250200-
NORTHWEST AND NORTH CENTRAL SOUTH DAKOTA

CITY           SKY/WX    TMP DP  RH WIND       PRES   REMARKS
BUFFALO          N/A     65  43  44 NW22G29   30.10R
FAITH            N/A     71  44  37 NW14      30.11R
MOBRIDGE       CLEAR     76  42  29 NW17      30.02R
$$

SDZ012>016-024>037-041>051-057-063-072>074-250200-
SOUTHWEST AND SOUTH CENTRAL SOUTH DAKOTA

CITY           SKY/WX    TMP DP  RH WIND       PRES   REMARKS
RAPID CTY ARPT PTCLDY    68  44  42 N15       30.17R
PIERRE         PTCLDY    72  48  42 NW5       30.04R
CUSTER         CLOUDY    62  38  40 E9        30.25R
ELLSWORTH AFB  MOCLDY    66  48  52 N16       30.16
PHILIP         PTCLDY    72  49  44 NW7       30.09R
PINE RIDGE     CLOUDY    70  49  47 NE7       30.16R
WINNER         FAIR      69  56  62 SW6       30.11R
$$

SDZ004>011-016>023-039-040-250200-
NORTHEAST SOUTH DAKOTA

CITY           SKY/WX    TMP DP  RH WIND       PRES   REMARKS
ABERDEEN       PTCLDY    70  53  54 W6        29.99F
WATERTOWN      CLOUDY    68  57  68 NW3       30.01F
BROOKINGS      CLOUDY    68  59  73 S9        30.05R
SISSETON         N/A     71  55  56 NW6       29.97S
$$

SDZ017-020-022-023-036>040-048>070-250200-
SOUTHEAST SOUTH DAKOTA

CITY           SKY/WX    TMP DP  RH WIND       PRES   REMARKS
SIOUX FALLS    CLOUDY    71  57  61 SW5       30.05S
HURON          CLOUDY    69  55  60 SW6       30.02R
CHAMBERLAIN    CLOUDY    69  58  67 SW6       30.08R
MITCHELL       CLOUDY    71  57  61 SW6       30.06R
YANKTON        CLOUDY    70  59  68 E3        30.05S
$$

ABBREVIATIONS USED IN REMARKS
   TC - TEMPERATURE IN CELSIUS
  WCI - WIND CHILL INDEX
   HX - HEAT INDEX
  VSB - VISIBILITY





USA.gov is the U.S. government's official web portal to all federal, state and local government web resources and services.